Location: ActonStarParty
(42.4766°N, 71.4538°W)
Time: 05:12:25
(UTC-04:00)

ISS - Visible Passes

Search period start: 23 July 2016 00:00
Search period end: 02 August 2016 00:00
Orbit: 401 x 404 km, 51.6° (Epoch: 23 July)

Date Brightness Start Highest point End Pass type
(mag) Time Alt. Az. Time Alt. Az. Time Alt. Az.
23 Jul -0.6 01:07:17 20° NNE 01:07:17 20° NNE 01:08:53 10° NE visible
23 Jul -0.3 02:41:15 10° NW 02:43:25 16° N 02:45:35 10° NE visible
23 Jul -1.3 04:17:39 10° NW 04:20:36 30° NNE 04:23:32 10° E visible
24 Jul -0.1 00:15:58 11° NE 00:15:58 11° NE 00:16:04 10° NE visible
24 Jul -0.3 01:48:33 12° NW 01:50:13 16° N 01:52:24 10° NE visible
24 Jul -0.7 03:24:51 10° NW 03:27:30 22° NNE 03:30:09 10° ENE visible
25 Jul -0.5 00:57:09 18° N 00:57:09 18° N 00:59:24 10° NE visible
25 Jul -0.4 02:31:58 10° NW 02:34:21 18° N 02:36:44 10° ENE visible
25 Jul -2.5 04:08:06 10° NW 04:11:20 53° NNE 04:14:31 10° ESE visible
25 Jul -1.2 20:50:36 10° SE 20:51:11 10° SE 20:51:47 10° ESE visible
25 Jul -2.4 22:23:52 10° SW 22:25:59 37° SW 22:25:59 37° SW visible
26 Jul -0.5 00:05:25 16° NNE 00:05:25 16° NNE 00:06:32 10° NE visible
26 Jul -0.3 01:38:59 10° NW 01:41:10 16° N 01:43:21 10° NE visible
26 Jul -1.5 03:15:18 10° NW 03:18:19 33° NNE 03:21:19 10° E visible
26 Jul -2.8 04:51:44 10° WNW 04:54:45 36° SW 04:57:46 10° SSE visible
26 Jul -3.1 21:31:08 10° SSW 21:34:15 45° SE 21:37:24 10° ENE visible
26 Jul -1.3 23:07:52 10° W 23:10:47 29° NNW 23:13:43 10° NE visible
27 Jul -0.3 00:45:49 10° NW 00:47:59 16° N 00:50:08 10° NE visible
27 Jul -0.9 02:22:30 10° NW 02:25:14 24° NNE 02:27:57 10° ENE visible
27 Jul -3.5 03:58:40 10° WNW 04:01:56 71° SW 04:05:10 10° SE visible
27 Jul -2.2 20:38:49 10° S 20:41:29 23° SE 20:44:09 10° E visible
27 Jul -2.2 22:14:37 10° WSW 22:17:45 45° NNW 22:20:55 10° NE visible
27 Jul -0.4 23:52:29 10° NW 23:54:47 18° N 23:57:05 10° NE visible
28 Jul -0.2 01:29:39 10° NW 01:35:03 - ENE 01:30:13 13° NNW visible
28 Jul -2.9 03:08:12 43° NNW 03:09:01 62° NNE 03:12:14 10° ESE visible
28 Jul -1.7 04:43:01 10° W 04:45:08 16° SW 04:47:14 10° S visible
28 Jul -3.2 21:21:32 10° WSW 21:24:47 79° NW 21:28:04 10° NE visible
28 Jul -0.6 22:59:04 10° WNW 23:01:37 21° NNW 23:04:11 10° NE visible
29 Jul -0.3 00:36:41 10° NW 00:38:17 16° N 00:38:17 16° N visible
29 Jul -1.1 22:05:40 10° W 22:08:31 27° NNW 22:11:21 10° NE visible
29 Jul -0.4 23:43:34 10° NW 23:45:44 16° N 23:46:52 14° NNE visible
30 Jul -1.8 21:12:22 10° W 21:15:27 39° NNW 21:18:33 10° NE visible
30 Jul -0.4 22:50:17 10° NW 22:52:32 17° N 22:54:47 10° NE visible
31 Jul -0.1 00:27:19 10° NW 00:28:07 14° NNW 00:28:07 14° NNW visible
31 Jul -0.6 21:56:53 10° WNW 21:59:22 20° NNW 22:01:51 10° NE visible
31 Jul -0.5 23:34:24 10° NW 23:36:40 17° N 23:36:49 17° NNE visible
01 Aug -1.0 21:03:28 10° WNW 21:06:14 25° NNW 21:09:00 10° NE visible
01 Aug -0.4 22:41:19 10° NW 22:43:29 16° N 22:45:33 10° NE visible
